Time,TemperatureF,DewpointF,PressureIn,WindDirection,WindDirectionDegrees,WindSpeedMPH,WindSpeedGustMPH,Humidity,HourlyPrecipIn,Conditions,Clouds,dailyrainin,SoftwareType,DateUTC
2013-03-09 00:00:00,34.2,23.7,30.25,NNE,32,0.0,9.0,65,0.00,,,0.20,VWS V14.01,2013-03-09 05:00:00,
2013-03-09 00:05:00,34.0,23.5,30.25,NE,51,0.0,9.0,65,0.00,,,0.00,VWS V14.01,2013-03-09 05:05:00,
2013-03-09 00:10:00,34.0,23.5,30.25,ENE,61,6.0,9.0,65,0.00,,,0.00,VWS V14.01,2013-03-09 05:10:00,
2013-03-09 00:15:00,34.0,23.5,30.26,East,86,2.0,9.0,65,0.00,,,0.00,VWS V14.01,2013-03-09 05:15:00,
2013-03-09 00:20:00,33.9,23.4,30.26,ENE,65,0.0,4.0,65,0.00,,,0.00,VWS V14.01,2013-03-09 05:20:00,
2013-03-09 00:25:00,33.9,23.4,30.26,ENE,66,0.0,7.0,65,0.00,,,0.00,VWS V14.01,2013-03-09 05:25:00,
2013-03-09 00:30:00,33.7,23.2,30.25,ENE,66,3.0,7.0,65,0.00,,,0.00,VWS V14.01,2013-03-09 05:30:00,
2013-03-09 00:35:00,33.7,23.6,30.25,NNE,16,0.0,7.0,66,0.00,,,0.00,VWS V14.01,2013-03-09 05:35:00,
2013-03-09 00:40:00,33.6,23.5,30.25,NNE,16,0.0,7.0,66,0.00,,,0.00,VWS V14.01,2013-03-09 05:40:00,
2013-03-09 00:45:00,33.4,23.3,30.26,NNE,16,0.0,7.0,66,0.00,,,0.00,VWS V14.01,2013-03-09 05:45:00,
2013-03-09 00:50:00,33.4,23.3,30.26,NNE,16,0.0,0.0,66,0.00,,,0.00,VWS V14.01,2013-03-09 05:50:00,
2013-03-09 00:55:00,33.3,23.5,30.26,NNE,16,0.0,1.0,67,0.00,,,0.00,VWS V14.01,2013-03-09 05:55:00,
2013-03-09 01:00:00,33.1,23.4,30.26,NE,50,0.0,4.0,67,0.00,,,0.00,VWS V14.01,2013-03-09 06:00:00,
2013-03-09 01:05:00,33.0,23.2,30.26,NE,50,0.0,4.0,67,0.00,,,0.00,VWS V14.01,2013-03-09 06:05:00,
2013-03-09 01:10:00,33.0,23.2,30.26,NE,50,0.0,4.0,67,0.00,,,0.00,VWS V14.01,2013-03-09 06:10:00,
2013-03-09 01:15:00,32.8,23.1,30.26,NE,50,0.0,4.0,67,0.00,,,0.00,VWS V14.01,2013-03-09 06:15:00,
2013-03-09 01:20:00,32.7,23.3,30.26,NE,50,0.0,0.0,68,0.00,,,0.00,VWS V14.01,2013-03-09 06:20:00,
2013-03-09 01:25:00,32.6,22.9,30.26,NE,50,0.0,1.0,67,0.00,,,0.00,VWS V14.01,2013-03-09 06:25:00,
2013-03-09 01:30:00,32.4,22.7,30.26,NE,50,0.0,3.0,67,0.00,,,0.00,VWS V14.01,2013-03-09 06:30:00,
2013-03-09 01:35:00,32.4,22.7,30.26,East,81,0.0,4.0,67,0.00,,,0.00,VWS V14.01,2013-03-09 06:35:00,
2013-03-09 01:40:00,32.4,22.7,30.26,East,81,0.0,4.0,67,0.00,,,0.00,VWS V14.01,2013-03-09 06:40:00,
2013-03-09 01:45:00,32.4,22.7,30.25,ENE,60,4.0,6.0,67,0.00,,,0.00,VWS V14.01,2013-03-09 06:45:00,
2013-03-09 01:50:00,32.4,22.7,30.25,ENE,74,0.0,5.0,67,0.00,,,0.00,VWS V14.01,2013-03-09 06:50:00,
2013-03-09 01:55:00,32.3,22.6,30.25,ENE,66,0.0,5.0,67,0.00,,,0.00,VWS V14.01,2013-03-09 06:55:00,
2013-03-09 02:00:00,32.3,22.6,30.25,ENE,66,0.0,5.0,67,0.00,,,0.00,VWS V14.01,2013-03-09 07:00:00,
2013-03-09 02:05:00,32.3,22.6,30.25,ENE,66,0.0,3.0,67,0.00,,,0.00,VWS V14.01,2013-03-09 07:05:00,
2013-03-09 02:10:00,32.1,22.4,30.25,ENE,66,0.0,3.0,67,0.00,,,0.00,VWS V14.01,2013-03-09 07:10:00,
2013-03-09 02:15:00,32.1,22.4,30.25,ENE,66,0.0,3.0,67,0.00,,,0.00,VWS V14.01,2013-03-09 07:15:00,
2013-03-09 02:20:00,32.0,22.3,30.25,ENE,66,0.0,0.0,67,0.00,,,0.00,VWS V14.01,2013-03-09 07:20:00,
2013-03-09 02:25:00,31.8,22.1,30.25,ENE,66,0.0,2.0,67,0.00,,,0.00,VWS V14.01,2013-03-09 07:25:00,
2013-03-09 02:30:00,31.7,22.4,30.24,ENE,66,0.0,2.0,68,0.00,,,0.00,VWS V14.01,2013-03-09 07:30:00,
2013-03-09 02:35:00,31.5,22.5,30.24,ENE,66,0.0,0.0,69,0.00,,,0.00,VWS V14.01,2013-03-09 07:35:00,
2013-03-09 02:40:00,31.2,22.6,30.24,ENE,66,0.0,0.0,70,0.00,,,0.00,VWS V14.01,2013-03-09 07:40:00,
2013-03-09 02:45:00,30.8,22.5,30.24,ENE,66,0.0,0.0,71,0.00,,,0.00,VWS V14.01,2013-03-09 07:45:00,
2013-03-09 02:50:00,30.5,22.2,30.24,ENE,66,0.0,0.0,71,0.00,,,0.00,VWS V14.01,2013-03-09 07:50:00,
2013-03-09 02:55:00,30.3,22.0,30.24,NE,47,0.0,5.0,71,0.00,,,0.00,VWS V14.01,2013-03-09 07:55:00,
2013-03-09 03:00:00,30.3,22.0,30.24,NE,47,0.0,5.0,71,0.00,,,0.00,VWS V14.01,2013-03-09 08:00:00,
2013-03-09 03:05:00,30.3,22.0,30.24,NE,47,0.0,2.0,71,0.00,,,0.00,VWS V14.01,2013-03-09 08:05:00,
2013-03-09 03:10:00,30.2,21.9,30.24,NE,47,0.0,2.0,71,0.00,,,0.00,VWS V14.01,2013-03-09 08:10:00,
2013-03-09 03:15:00,30.2,21.9,30.24,NE,47,0.0,2.0,71,0.00,,,0.00,VWS V14.01,2013-03-09 08:15:00,
2013-03-09 03:20:00,29.9,22.0,30.24,NE,47,0.0,0.0,72,0.00,,,0.00,VWS V14.01,2013-03-09 08:20:00,
2013-03-09 03:25:00,29.7,22.1,30.24,NE,47,0.0,0.0,73,0.00,,,0.00,VWS V14.01,2013-03-09 08:25:00,
2013-03-09 03:30:00,29.6,22.0,30.24,NE,47,0.0,0.0,73,0.00,,,0.00,VWS V14.01,2013-03-09 08:30:00,
2013-03-09 03:35:00,29.4,21.8,30.24,NE,47,0.0,2.0,73,0.00,,,0.00,VWS V14.01,2013-03-09 08:35:00,
2013-03-09 03:40:00,29.3,21.7,30.24,NE,47,0.0,2.0,73,0.00,,,0.00,VWS V14.01,2013-03-09 08:40:00,
2013-03-09 03:45:00,29.4,21.8,30.25,NE,47,0.0,4.0,73,0.00,,,0.00,VWS V14.01,2013-03-09 08:45:00,
2013-03-09 03:50:00,29.4,21.8,30.25,NE,47,0.0,0.0,73,0.00,,,0.00,VWS V14.01,2013-03-09 08:50:00,
2013-03-09 03:55:00,29.6,21.7,30.25,NE,47,0.0,0.0,72,0.00,,,0.00,VWS V14.01,2013-03-09 08:55:00,
2013-03-09 04:00:00,29.7,21.8,30.25,NE,47,0.0,4.0,72,0.00,,,0.00,VWS V14.01,2013-03-09 09:00:00,
2013-03-09 04:05:00,29.9,21.7,30.25,NE,47,0.0,1.0,71,0.00,,,0.00,VWS V14.01,2013-03-09 09:05:00,
2013-03-09 04:10:00,29.9,21.7,30.25,NE,47,1.0,2.0,71,0.00,,,0.00,VWS V14.01,2013-03-09 09:10:00,
2013-03-09 04:15:00,29.7,21.8,30.26,NE,47,0.0,2.0,72,0.00,,,0.00,VWS V14.01,2013-03-09 09:15:00,
2013-03-09 04:20:00,29.6,22.0,30.26,NE,47,0.0,0.0,73,0.00,,,0.00,VWS V14.01,2013-03-09 09:20:00,
2013-03-09 04:25:00,29.3,21.7,30.26,NE,47,0.0,0.0,73,0.00,,,0.00,VWS V14.01,2013-03-09 09:25:00,
2013-03-09 04:30:00,28.7,21.5,30.26,NE,47,0.0,1.0,74,0.00,,,0.00,VWS V14.01,2013-03-09 09:30:00,
2013-03-09 04:35:00,28.1,21.5,30.26,NE,47,0.0,1.0,76,0.00,,,0.00,VWS V14.01,2013-03-09 09:35:00,
2013-03-09 04:40:00,27.7,21.4,30.26,NE,47,0.0,1.0,77,0.00,,,0.00,VWS V14.01,2013-03-09 09:40:00,
2013-03-09 04:45:00,27.2,21.3,30.26,NE,47,0.0,1.0,78,0.00,,,0.00,VWS V14.01,2013-03-09 09:45:00,
2013-03-09 04:49:00,26.9,21.3,30.26,NE,47,2.0,2.0,79,0.00,,,0.00,VWS V14.01,2013-03-09 09:49:00,
2013-03-09 04:54:00,26.5,21.2,30.26,NE,47,0.0,3.0,80,0.00,,,0.00,VWS V14.01,2013-03-09 09:54:00,
2013-03-09 04:59:00,26.2,21.2,30.27,NE,47,0.0,3.0,81,0.00,,,0.00,VWS V14.01,2013-03-09 09:59:00,
2013-03-09 05:00:00,26.0,21.3,30.29,NE,47,0.0,0.0,82,0.00,,,0.00,VWS V14.01,2013-03-09 10:00:00,
2013-03-09 05:04:00,25.9,20.9,30.27,NE,47,0.0,1.0,81,0.00,,,0.00,VWS V14.01,2013-03-09 10:04:00,
2013-03-09 05:09:00,25.7,21.0,30.27,NE,47,0.0,1.0,82,0.00,,,0.00,VWS V14.01,2013-03-09 10:09:00,
2013-03-09 05:14:00,25.7,21.3,30.27,NE,47,0.0,4.0,83,0.00,,,0.00,VWS V14.01,2013-03-09 10:14:00,
2013-03-09 05:15:00,25.9,21.2,30.29,NE,47,0.0,2.0,82,0.00,,,0.00,VWS V14.01,2013-03-09 10:15:00,
2013-03-09 05:19:00,25.9,21.5,30.27,NE,47,0.0,1.0,83,0.00,,,0.00,VWS V14.01,2013-03-09 10:19:00,
2013-03-09 05:24:00,25.9,21.5,30.27,NE,48,0.0,1.0,83,0.00,,,0.00,VWS V14.01,2013-03-09 10:24:00,
2013-03-09 05:29:00,26.0,21.6,30.28,NE,47,0.0,1.0,83,0.00,,,0.00,VWS V14.01,2013-03-09 10:29:00,
2013-03-09 05:30:00,25.3,20.9,30.30,NE,47,0.0,2.0,83,0.00,,,0.00,VWS V14.01,2013-03-09 10:30:00,
2013-03-09 05:34:00,26.0,21.6,30.28,NE,47,0.0,0.0,83,0.00,,,0.00,VWS V14.01,2013-03-09 10:34:00,
2013-03-09 05:39:00,26.3,21.9,30.28,NE,47,0.0,2.0,83,0.00,,,0.00,VWS V14.01,2013-03-09 10:39:00,
2013-03-09 05:44:00,26.3,21.6,30.29,NE,47,0.0,2.0,82,0.00,,,0.00,VWS V14.01,2013-03-09 10:44:00,
2013-03-09 05:45:00,25.2,21.0,30.30,NE,47,1.0,2.0,84,0.00,,,0.00,VWS V14.01,2013-03-09 10:45:00,
2013-03-09 05:49:00,26.2,21.5,30.29,NE,47,0.0,0.0,82,0.00,,,0.00,VWS V14.01,2013-03-09 10:49:00,
2013-03-09 05:54:00,26.2,21.5,30.29,NE,47,0.0,0.0,82,0.00,,,0.00,VWS V14.01,2013-03-09 10:54:00,
2013-03-09 05:59:00,26.0,21.3,30.29,NE,47,0.0,0.0,82,0.00,,,0.00,VWS V14.01,2013-03-09 10:59:00,
2013-03-09 06:00:00,25.6,21.5,30.30,NE,47,0.0,5.0,84,0.00,,,0.00,VWS V14.01,2013-03-09 11:00:00,
2013-03-09 06:04:00,26.0,21.3,30.29,NE,47,0.0,0.0,82,0.00,,,0.00,VWS V14.01,2013-03-09 11:04:00,
2013-03-09 06:09:00,25.9,21.2,30.29,NE,47,0.0,1.0,82,0.00,,,0.00,VWS V14.01,2013-03-09 11:09:00,
2013-03-09 06:14:00,25.9,21.2,30.29,NE,47,2.0,2.0,82,0.00,,,0.00,VWS V14.01,2013-03-09 11:14:00,
2013-03-09 06:15:00,28.1,21.8,30.30,NE,47,0.0,2.0,77,0.00,,,0.00,VWS V14.01,2013-03-09 11:15:00,
2013-03-09 06:19:00,25.7,21.0,30.29,NE,47,0.0,0.0,82,0.00,,,0.00,VWS V14.01,2013-03-09 11:19:00,
2013-03-09 06:24:00,25.5,20.8,30.29,NE,47,0.0,0.0,82,0.00,,,0.00,VWS V14.01,2013-03-09 11:24:00,
2013-03-09 06:29:00,25.3,20.9,30.30,NE,47,0.0,2.0,83,0.00,,,0.00,VWS V14.01,2013-03-09 11:29:00,
2013-03-09 06:30:00,30.5,21.6,30.30,ENE,61,2.0,6.0,69,0.00,,,0.00,VWS V14.01,2013-03-09 11:30:00,
2013-03-09 06:34:00,25.3,21.1,30.30,NE,47,0.0,2.0,84,0.00,,,0.00,VWS V14.01,2013-03-09 11:34:00,
2013-03-09 06:39:00,25.3,21.1,30.30,NE,47,0.0,2.0,84,0.00,,,0.00,VWS V14.01,2013-03-09 11:39:00,
2013-03-09 06:44:00,25.2,21.0,30.30,NE,47,0.0,2.0,84,0.00,,,0.00,VWS V14.01,2013-03-09 11:44:00,
2013-03-09 06:45:00,31.7,22.0,30.31,NE,51,0.0,7.0,67,0.00,,,0.00,VWS V14.01,2013-03-09 11:45:00,
2013-03-09 06:49:00,25.2,21.0,30.30,NE,47,0.0,4.0,84,0.00,,,0.00,VWS V14.01,2013-03-09 11:49:00,
2013-03-09 06:54:00,25.2,21.0,30.30,NE,47,0.0,5.0,84,0.00,,,0.00,VWS V14.01,2013-03-09 11:54:00,
2013-03-09 06:59:00,25.5,21.4,30.30,NE,47,0.0,5.0,84,0.00,,,0.00,VWS V14.01,2013-03-09 11:59:00,
2013-03-09 07:00:00,32.6,21.8,30.30,NNE,26,2.0,5.0,64,0.00,,,0.00,VWS V14.01,2013-03-09 12:00:00,
2013-03-09 07:04:00,25.9,21.5,30.30,NE,47,0.0,2.0,83,0.00,,,0.00,VWS V14.01,2013-03-09 12:04:00,
2013-03-09 07:09:00,25.9,20.6,30.30,NE,47,0.0,2.0,80,0.00,,,0.00,VWS V14.01,2013-03-09 12:09:00,
2013-03-09 07:14:00,27.7,20.8,30.30,NE,47,0.0,2.0,75,0.00,,,0.00,VWS V14.01,2013-03-09 12:14:00,
2013-03-09 07:15:00,33.4,21.8,30.30,ENE,65,6.0,9.0,62,0.00,,,0.00,VWS V14.01,2013-03-09 12:15:00,
2013-03-09 07:19:00,28.7,21.1,30.30,NE,40,0.0,6.0,73,0.00,,,0.00,VWS V14.01,2013-03-09 12:19:00,
2013-03-09 07:24:00,29.4,21.8,30.30,ENE,69,2.0,6.0,73,0.00,,,0.00,VWS V14.01,2013-03-09 12:24:00,
2013-03-09 07:29:00,30.2,21.6,30.30,ENE,61,0.0,6.0,70,0.00,,,0.00,VWS V14.01,2013-03-09 12:29:00,
2013-03-09 07:30:00,34.3,22.3,30.31,NNE,28,0.0,7.0,61,0.00,,,0.00,VWS V14.01,2013-03-09 12:30:00,
2013-03-09 07:34:00,30.9,21.6,30.30,NE,51,0.0,7.0,68,0.00,,,0.00,VWS V14.01,2013-03-09 12:34:00,
2013-03-09 07:39:00,31.2,21.9,30.30,NE,51,0.0,7.0,68,0.00,,,0.00,VWS V14.01,2013-03-09 12:39:00,
2013-03-09 07:44:00,31.5,21.8,30.30,NE,42,1.0,7.0,67,0.00,,,0.00,VWS V14.01,2013-03-09 12:44:00,
2013-03-09 07:45:00,35.2,23.1,30.31,NNE,26,6.0,8.0,61,0.00,,,0.00,VWS V14.01,2013-03-09 12:45:00,
2013-03-09 07:49:00,32.0,21.9,30.31,North,5,0.0,5.0,66,0.00,,,0.00,VWS V14.01,2013-03-09 12:49:00,
2013-03-09 07:54:00,32.3,22.2,30.31,North,5,0.0,5.0,66,0.00,,,0.00,VWS V14.01,2013-03-09 12:54:00,
2013-03-09 07:59:00,32.6,21.8,30.31,North,5,0.0,5.0,64,0.00,,,0.00,VWS V14.01,2013-03-09 12:59:00,
2013-03-09 08:00:00,36.5,22.3,30.31,NNE,29,7.0,15.0,56,0.00,,,0.00,VWS V14.01,2013-03-09 13:00:00,
2013-03-09 08:04:00,32.7,21.9,30.30,NE,42,0.0,5.0,64,0.00,,,0.00,VWS V14.01,2013-03-09 13:04:00,
2013-03-09 08:09:00,33.1,22.3,30.30,NE,42,0.0,5.0,64,0.00,,,0.00,VWS V14.01,2013-03-09 13:09:00,
2013-03-09 08:14:00,33.4,22.2,30.30,ENE,66,0.0,7.0,63,0.00,,,0.00,VWS V14.01,2013-03-09 13:14:00,
2013-03-09 08:15:00,37.4,22.7,30.32,NE,54,6.0,13.0,55,0.00,,,0.00,VWS V14.01,2013-03-09 13:15:00,
2013-03-09 08:19:00,33.7,22.1,30.30,ENE,74,0.0,6.0,62,0.00,,,0.00,VWS V14.01,2013-03-09 13:19:00,
2013-03-09 08:24:00,33.9,22.3,30.30,NE,46,6.0,7.0,62,0.00,,,0.00,VWS V14.01,2013-03-09 13:24:00,
2013-03-09 08:29:00,34.2,22.2,30.30,NNE,28,3.0,7.0,61,0.00,,,0.00,VWS V14.01,2013-03-09 13:29:00,
2013-03-09 08:30:00,38.2,22.6,30.32,North,355,7.0,11.0,53,0.00,,,0.00,VWS V14.01,2013-03-09 13:30:00,
2013-03-09 08:34:00,34.6,22.2,30.31,East,88,1.0,7.0,60,0.00,,,0.00,VWS V14.01,2013-03-09 13:34:00,
2013-03-09 08:39:00,35.1,22.6,30.31,NE,41,0.0,7.0,60,0.00,,,0.00,VWS V14.01,2013-03-09 13:39:00,
2013-03-09 08:44:00,35.2,22.3,30.31,East,90,2.0,7.0,59,0.00,,,0.00,VWS V14.01,2013-03-09 13:44:00,
2013-03-09 08:45:00,39.1,22.5,30.32,NE,51,4.0,11.0,51,0.00,,,0.00,VWS V14.01,2013-03-09 13:45:00,
2013-03-09 08:49:00,35.8,22.1,30.31,NE,53,6.0,11.0,57,0.00,,,0.00,VWS V14.01,2013-03-09 13:49:00,
2013-03-09 08:54:00,35.9,22.6,30.31,ENE,65,7.0,11.0,58,0.00,,,0.00,VWS V14.01,2013-03-09 13:54:00,
2013-03-09 08:59:00,36.5,22.7,30.31,NE,43,6.0,15.0,57,0.00,,,0.00,VWS V14.01,2013-03-09 13:59:00,
2013-03-09 09:00:00,40.0,22.9,30.32,ENE,62,2.0,12.0,50,0.00,,,0.00,VWS V14.01,2013-03-09 14:00:00,
2013-03-09 09:04:00,36.7,22.5,30.31,NNE,33,1.0,12.0,56,0.00,,,0.00,VWS V14.01,2013-03-09 14:04:00,
2013-03-09 09:09:00,37.1,22.4,30.31,NE,46,6.0,13.0,55,0.00,,,0.00,VWS V14.01,2013-03-09 14:09:00,
2013-03-09 09:14:00,37.2,22.1,30.31,ENE,74,2.0,13.0,54,0.00,,,0.00,VWS V14.01,2013-03-09 14:14:00,
2013-03-09 09:15:00,40.8,23.1,30.32,NE,52,6.0,12.0,49,0.00,,,0.00,VWS V14.01,2013-03-09 14:15:00,
2013-03-09 09:19:00,37.5,22.4,30.32,NE,55,7.0,9.0,54,0.00,,,0.00,VWS V14.01,2013-03-09 14:19:00,
2013-03-09 09:24:00,37.8,23.1,30.32,ENE,60,7.0,10.0,55,0.00,,,0.00,VWS V14.01,2013-03-09 14:24:00,
2013-03-09 09:29:00,38.1,22.5,30.32,NNE,14,6.0,11.0,53,0.00,,,0.00,VWS V14.01,2013-03-09 14:29:00,
2013-03-09 09:30:00,41.7,23.0,30.31,NE,43,8.0,10.0,47,0.00,,,0.00,VWS V14.01,2013-03-09 14:30:00,
2013-03-09 09:34:00,38.5,22.9,30.32,NE,42,9.0,9.0,53,0.00,,,0.00,VWS V14.01,2013-03-09 14:34:00,
2013-03-09 09:39:00,38.8,22.7,30.32,NNE,15,4.0,11.0,52,0.00,,,0.00,VWS V14.01,2013-03-09 14:39:00,
2013-03-09 09:44:00,39.0,22.9,30.32,ENE,65,6.0,11.0,52,0.00,,,0.00,VWS V14.01,2013-03-09 14:44:00,
2013-03-09 09:45:00,42.7,23.4,30.31,NE,52,5.0,10.0,46,0.00,,,0.00,VWS V14.01,2013-03-09 14:45:00,
2013-03-09 09:49:00,39.5,22.9,30.32,North,5,10.0,11.0,51,0.00,,,0.00,VWS V14.01,2013-03-09 14:49:00,
2013-03-09 09:54:00,39.8,22.7,30.32,NNE,24,8.0,11.0,50,0.00,,,0.00,VWS V14.01,2013-03-09 14:54:00,
2013-03-09 09:59:00,40.0,22.9,30.32,NE,54,4.0,12.0,50,0.00,,,0.00,VWS V14.01,2013-03-09 14:59:00,
2013-03-09 10:00:00,44.0,23.0,30.32,NE,46,8.0,15.0,43,0.00,,,0.00,VWS V14.01,2013-03-09 15:00:00,
2013-03-09 10:04:00,40.2,23.1,30.32,NNE,27,12.0,12.0,50,0.00,,,0.00,VWS V14.01,2013-03-09 15:04:00,
2013-03-09 10:09:00,40.4,22.8,30.32,ENE,57,5.0,12.0,49,0.00,,,0.00,VWS V14.01,2013-03-09 15:09:00,
2013-03-09 10:14:00,40.7,24.0,30.32,ENE,59,7.0,12.0,51,0.00,,,0.00,VWS V14.01,2013-03-09 15:14:00,
2013-03-09 10:15:00,44.7,23.0,30.31,NE,53,4.0,8.0,42,0.00,,,0.00,VWS V14.01,2013-03-09 15:15:00,
2013-03-09 10:19:00,40.8,23.1,30.32,NE,50,0.0,10.0,49,0.00,,,0.00,VWS V14.01,2013-03-09 15:19:00,
2013-03-09 10:24:00,41.2,24.0,30.32,NE,52,9.0,10.0,50,0.00,,,0.00,VWS V14.01,2013-03-09 15:24:00,
2013-03-09 10:29:00,41.7,24.5,30.32,ENE,65,5.0,10.0,50,0.00,,,0.00,VWS V14.01,2013-03-09 15:29:00,
2013-03-09 10:30:00,45.1,22.2,30.31,North,10,6.0,11.0,40,0.00,,,0.00,VWS V14.01,2013-03-09 15:30:00,
2013-03-09 10:34:00,41.8,23.1,30.31,ENE,57,4.0,8.0,47,0.00,,,0.00,VWS V14.01,2013-03-09 15:34:00,
2013-03-09 10:39:00,42.4,23.1,30.31,NE,34,9.0,9.0,46,0.00,,,0.00,VWS V14.01,2013-03-09 15:39:00,
2013-03-09 10:44:00,42.7,23.4,30.31,NE,49,4.0,10.0,46,0.00,,,0.00,VWS V14.01,2013-03-09 15:44:00,
2013-03-09 10:45:00,46.6,23.0,30.31,North,9,3.0,10.0,39,0.00,,,0.00,VWS V14.01,2013-03-09 15:45:00,
2013-03-09 10:49:00,43.1,23.7,30.31,NE,55,0.0,7.0,46,0.00,,,0.00,VWS V14.01,2013-03-09 15:49:00,
2013-03-09 10:54:00,43.7,23.2,30.31,ENE,68,5.0,15.0,44,0.00,,,0.00,VWS V14.01,2013-03-09 15:54:00,
2013-03-09 10:59:00,44.0,23.0,30.31,NNE,24,7.0,15.0,43,0.00,,,0.00,VWS V14.01,2013-03-09 15:59:00,
2013-03-09 11:00:00,47.8,22.2,30.30,NE,49,5.0,10.0,36,0.00,,,0.00,VWS V14.01,2013-03-09 16:00:00,
2013-03-09 11:04:00,43.8,23.9,30.32,ENE,57,4.0,8.0,45,0.00,,,0.00,VWS V14.01,2013-03-09 16:04:00,
2013-03-09 11:09:00,44.8,24.2,30.32,NE,36,6.0,8.0,44,0.00,,,0.00,VWS V14.01,2013-03-09 16:09:00,
2013-03-09 11:14:00,44.8,23.1,30.32,ENE,63,3.0,8.0,42,0.00,,,0.00,VWS V14.01,2013-03-09 16:14:00,
2013-03-09 11:15:00,48.2,22.5,30.29,NNE,29,5.0,9.0,36,0.00,,,0.00,VWS V14.01,2013-03-09 16:15:00,
2013-03-09 11:19:00,44.7,23.0,30.31,NNE,28,7.0,11.0,42,0.00,,,0.00,VWS V14.01,2013-03-09 16:19:00,
2013-03-09 11:24:00,45.4,24.2,30.31,NE,49,6.0,11.0,43,0.00,,,0.00,VWS V14.01,2013-03-09 16:24:00,
2013-03-09 11:29:00,45.3,23.6,30.31,NNE,26,6.0,11.0,42,0.00,,,0.00,VWS V14.01,2013-03-09 16:29:00,
2013-03-09 11:30:00,49.3,21.4,30.28,NNE,26,7.0,11.0,33,0.00,,,0.00,VWS V14.01,2013-03-09 16:30:00,
2013-03-09 11:34:00,45.6,23.3,30.31,NE,51,6.0,10.0,41,0.00,,,0.00,VWS V14.01,2013-03-09 16:34:00,
2013-03-09 11:39:00,45.7,23.4,30.31,North,355,5.0,10.0,41,0.00,,,0.00,VWS V14.01,2013-03-09 16:39:00,
2013-03-09 11:44:00,46.3,24.5,30.31,NNE,18,7.0,10.0,42,0.00,,,0.00,VWS V14.01,2013-03-09 16:44:00,
2013-03-09 11:45:00,50.7,22.7,30.27,NE,49,0.0,7.0,33,0.00,,,0.00,VWS V14.01,2013-03-09 16:45:00,
2013-03-09 11:49:00,47.5,23.8,30.31,NNE,22,2.0,6.0,39,0.00,,,0.00,VWS V14.01,2013-03-09 16:49:00,
2013-03-09 11:54:00,47.8,22.2,30.31,North,9,0.0,10.0,36,0.00,,,0.00,VWS V14.01,2013-03-09 16:54:00,
2013-03-09 11:58:00,48.4,23.3,30.31,ENE,67,5.0,10.0,37,0.00,,,0.00,VWS V14.01,2013-03-09 16:58:00,
2013-03-09 12:00:00,51.2,21.6,30.27,ENE,65,4.0,9.0,31,0.00,,,0.00,VWS V14.01,2013-03-09 17:00:00,
2013-03-09 12:03:00,47.9,23.5,30.30,NE,52,5.0,7.0,38,0.00,,,0.00,VWS V14.01,2013-03-09 17:03:00,
2013-03-09 12:08:00,48.5,23.4,30.30,North,360,7.0,8.0,37,0.00,,,0.00,VWS V14.01,2013-03-09 17:08:00,
2013-03-09 12:13:00,48.4,22.7,30.30,ENE,57,7.0,9.0,36,0.00,,,0.00,VWS V14.01,2013-03-09 17:13:00,
2013-03-09 12:15:00,51.8,22.1,30.26,NE,50,0.0,8.0,31,0.00,,,0.00,VWS V14.01,2013-03-09 17:15:00,
2013-03-09 12:18:00,48.4,22.7,30.29,NE,42,7.0,7.0,36,0.00,,,0.00,VWS V14.01,2013-03-09 17:18:00,
2013-03-09 12:23:00,49.3,23.5,30.29,NNE,32,0.0,11.0,36,0.00,,,0.00,VWS V14.01,2013-03-09 17:23:00,
2013-03-09 12:28:00,49.1,22.6,30.29,North,5,8.0,11.0,35,0.00,,,0.00,VWS V14.01,2013-03-09 17:28:00,
2013-03-09 12:30:00,54.1,24.2,30.26,NE,38,2.0,9.0,31,0.00,,,0.00,VWS V14.01,2013-03-09 17:30:00,
2013-03-09 12:33:00,49.3,22.8,30.28,NE,34,5.0,7.0,35,0.00,,,0.00,VWS V14.01,2013-03-09 17:33:00,
2013-03-09 12:38:00,50.3,22.3,30.28,NE,40,4.0,7.0,33,0.00,,,0.00,VWS V14.01,2013-03-09 17:38:00,
2013-03-09 12:43:00,50.3,21.6,30.28,NE,49,5.0,7.0,32,0.00,,,0.00,VWS V14.01,2013-03-09 17:43:00,
2013-03-09 12:45:00,53.4,21.1,30.25,NE,49,2.0,7.0,28,0.00,,,0.00,VWS V14.01,2013-03-09 17:45:00,
2013-03-09 12:48:00,50.9,22.8,30.27,NNE,22,5.0,9.0,33,0.00,,,0.00,VWS V14.01,2013-03-09 17:48:00,
2013-03-09 12:53:00,51.8,22.9,30.27,ENE,62,8.0,9.0,32,0.00,,,0.00,VWS V14.01,2013-03-09 17:53:00,
2013-03-09 12:58:00,51.0,22.2,30.27,ENE,65,0.0,9.0,32,0.00,,,0.00,VWS V14.01,2013-03-09 17:58:00,
2013-03-09 13:00:00,54.9,20.7,30.25,ENE,61,0.0,10.0,26,0.00,,,0.00,VWS V14.01,2013-03-09 18:00:00,
2013-03-09 13:03:00,51.2,22.4,30.27,NE,54,0.0,5.0,32,0.00,,,0.00,VWS V14.01,2013-03-09 18:03:00,
2013-03-09 13:08:00,51.8,21.4,30.27,NE,35,0.0,8.0,30,0.00,,,0.00,VWS V14.01,2013-03-09 18:08:00,
2013-03-09 13:13:00,51.6,22.0,30.27,ENE,69,6.0,8.0,31,0.00,,,0.00,VWS V14.01,2013-03-09 18:13:00,
2013-03-09 13:15:00,54.4,22.0,30.25,NE,50,2.0,7.0,28,0.00,,,0.00,VWS V14.01,2013-03-09 18:15:00,
2013-03-09 13:18:00,52.1,23.2,30.26,ENE,60,9.0,9.0,32,0.00,,,0.00,VWS V14.01,2013-03-09 18:18:00,
2013-03-09 13:23:00,53.0,23.2,30.26,NE,54,3.0,9.0,31,0.00,,,0.00,VWS V14.01,2013-03-09 18:23:00,
2013-03-09 13:28:00,53.1,21.7,30.26,North,11,0.0,9.0,29,0.00,,,0.00,VWS V14.01,2013-03-09 18:28:00,
2013-03-09 13:30:00,55.8,21.5,30.25,NNE,30,3.0,13.0,26,0.00,,,0.00,VWS V14.01,2013-03-09 18:30:00,
2013-03-09 13:33:00,54.4,23.6,30.26,NNE,22,0.0,4.0,30,0.00,,,0.00,VWS V14.01,2013-03-09 18:33:00,
2013-03-09 13:38:00,54.3,22.7,30.26,NNW,348,0.0,7.0,29,0.00,,,0.00,VWS V14.01,2013-03-09 18:38:00,
2013-03-09 13:43:00,53.8,22.3,30.26,NE,49,5.0,7.0,29,0.00,,,0.00,VWS V14.01,2013-03-09 18:43:00,
2013-03-09 13:45:00,56.1,19.8,30.25,ENE,66,0.0,13.0,24,0.00,,,0.00,VWS V14.01,2013-03-09 18:45:00,
2013-03-09 13:48:00,55.0,23.4,30.25,NE,49,0.0,2.0,29,0.00,,,0.00,VWS V14.01,2013-03-09 18:48:00,
2013-03-09 13:53:00,54.3,20.2,30.25,ENE,63,6.0,10.0,26,0.00,,,0.00,VWS V14.01,2013-03-09 18:53:00,
2013-03-09 13:58:00,54.4,22.8,30.25,NE,51,3.0,10.0,29,0.00,,,0.00,VWS V14.01,2013-03-09 18:58:00,
2013-03-09 14:00:00,57.9,23.2,30.25,NE,56,4.0,7.0,26,0.00,,,0.00,VWS V14.01,2013-03-09 19:00:00,
2013-03-09 14:03:00,55.9,23.3,30.25,ENE,61,6.0,6.0,28,0.00,,,0.00,VWS V14.01,2013-03-09 19:03:00,
2013-03-09 14:08:00,54.4,23.6,30.25,NE,36,5.0,6.0,30,0.00,,,0.00,VWS V14.01,2013-03-09 19:08:00,
2013-03-09 14:13:00,54.3,21.0,30.25,ENE,71,5.0,7.0,27,0.00,,,0.00,VWS V14.01,2013-03-09 19:13:00,
2013-03-09 14:15:00,58.2,23.5,30.25,ENE,69,8.0,11.0,26,0.00,,,0.00,VWS V14.01,2013-03-09 19:15:00,
2013-03-09 14:18:00,56.4,23.7,30.25,ENE,67,2.0,2.0,28,0.00,,,0.00,VWS V14.01,2013-03-09 19:18:00,
2013-03-09 14:23:00,56.8,23.2,30.25,NNE,28,10.0,10.0,27,0.00,,,0.00,VWS V14.01,2013-03-09 19:23:00,
2013-03-09 14:28:00,55.9,20.6,30.25,NNE,24,6.0,13.0,25,0.00,,,0.00,VWS V14.01,2013-03-09 19:28:00,
2013-03-09 14:30:00,59.5,21.7,30.25,ENE,74,6.0,8.0,23,0.00,,,0.00,VWS V14.01,2013-03-09 19:30:00,
2013-03-09 14:33:00,55.9,19.6,30.25,NE,53,0.0,7.0,24,0.00,,,0.00,VWS V14.01,2013-03-09 19:33:00,
2013-03-09 14:38:00,55.8,18.6,30.25,NNE,29,6.0,13.0,23,0.00,,,0.00,VWS V14.01,2013-03-09 19:38:00,
2013-03-09 14:43:00,56.1,20.8,30.25,East,87,8.0,13.0,25,0.00,,,0.00,VWS V14.01,2013-03-09 19:43:00,
2013-03-09 14:45:00,58.9,23.2,30.25,NE,44,5.0,12.0,25,0.00,,,0.00,VWS V14.01,2013-03-09 19:45:00,
2013-03-09 14:48:00,56.2,23.5,30.25,ENE,71,0.0,6.0,28,0.00,,,0.00,VWS V14.01,2013-03-09 19:48:00,
2013-03-09 14:53:00,56.9,21.5,30.25,NNE,26,0.0,6.0,25,0.00,,,0.00,VWS V14.01,2013-03-09 19:53:00,
2013-03-09 14:58:00,58.0,22.4,30.25,East,84,5.0,7.0,25,0.00,,,0.00,VWS V14.01,2013-03-09 19:58:00,
2013-03-09 15:00:00,58.2,22.6,30.25,NNE,29,2.0,11.0,25,0.00,,,0.00,VWS V14.01,2013-03-09 20:00:00,
2013-03-09 15:03:00,57.5,22.0,30.25,North,5,4.0,9.0,25,0.00,,,0.00,VWS V14.01,2013-03-09 20:03:00,
2013-03-09 15:08:00,57.7,20.2,30.25,ENE,67,8.0,11.0,23,0.00,,,0.00,VWS V14.01,2013-03-09 20:08:00,
2013-03-09 15:13:00,57.9,21.4,30.25,East,91,6.0,11.0,24,0.00,,,0.00,VWS V14.01,2013-03-09 20:13:00,
2013-03-09 15:15:00,58.2,22.6,30.25,NE,35,8.0,9.0,25,0.00,,,0.00,VWS V14.01,2013-03-09 20:15:00,
2013-03-09 15:18:00,58.3,20.7,30.25,NE,53,3.0,8.0,23,0.00,,,0.00,VWS V14.01,2013-03-09 20:18:00,
2013-03-09 15:23:00,58.8,23.1,30.25,NNE,33,6.0,8.0,25,0.00,,,0.00,VWS V14.01,2013-03-09 20:23:00,
2013-03-09 15:28:00,58.9,22.2,30.25,ENE,77,0.0,8.0,24,0.00,,,0.00,VWS V14.01,2013-03-09 20:28:00,
2013-03-09 15:30:00,58.9,24.1,30.25,ENE,57,6.0,8.0,26,0.00,,,0.00,VWS V14.01,2013-03-09 20:30:00,
2013-03-09 15:33:00,59.4,21.6,30.25,NE,39,4.0,12.0,23,0.00,,,0.00,VWS V14.01,2013-03-09 20:33:00,
2013-03-09 15:38:00,59.7,21.9,30.25,ENE,76,5.0,12.0,23,0.00,,,0.00,VWS V14.01,2013-03-09 20:38:00,
2013-03-09 15:43:00,59.2,23.4,30.25,NNE,30,8.0,12.0,25,0.00,,,0.00,VWS V14.01,2013-03-09 20:43:00,
2013-03-09 15:45:00,58.9,22.2,30.25,NE,34,0.0,9.0,24,0.00,,,0.00,VWS V14.01,2013-03-09 20:45:00,
2013-03-09 15:48:00,58.8,24.0,30.25,ENE,57,5.0,7.0,26,0.00,,,0.00,VWS V14.01,2013-03-09 20:48:00,
2013-03-09 15:53:00,59.1,22.4,30.25,NNE,13,6.0,10.0,24,0.00,,,0.00,VWS V14.01,2013-03-09 20:53:00,
2013-03-09 15:58:00,58.5,21.9,30.25,NNE,21,5.0,11.0,24,0.00,,,0.00,VWS V14.01,2013-03-09 20:58:00,
2013-03-09 16:00:00,58.5,22.8,30.26,NNE,29,5.0,8.0,25,0.00,,,0.00,VWS V14.01,2013-03-09 21:00:00,
2013-03-09 16:03:00,58.0,22.4,30.25,NNE,30,6.0,7.0,25,0.00,,,0.00,VWS V14.01,2013-03-09 21:03:00,
2013-03-09 16:08:00,58.0,22.4,30.25,NNE,26,4.0,7.0,25,0.00,,,0.00,VWS V14.01,2013-03-09 21:08:00,
2013-03-09 16:13:00,58.3,22.6,30.25,NE,44,8.0,9.0,25,0.00,,,0.00,VWS V14.01,2013-03-09 21:13:00,
2013-03-09 16:15:00,58.3,22.7,30.26,NE,44,5.0,6.0,25,0.00,,,0.00,VWS V14.01,2013-03-09 21:15:00,
2013-03-09 16:18:00,58.3,22.6,30.25,East,96,0.0,8.0,25,0.00,,,0.00,VWS V14.01,2013-03-09 21:18:00,
2013-03-09 16:23:00,58.8,24.9,30.25,ENE,65,2.0,8.0,27,0.00,,,0.00,VWS V14.01,2013-03-09 21:23:00,
2013-03-09 16:28:00,58.8,24.0,30.25,ENE,57,0.0,8.0,26,0.00,,,0.00,VWS V14.01,2013-03-09 21:28:00,
2013-03-09 16:30:00,57.4,22.8,30.26,NE,36,0.0,6.0,26,0.00,,,0.00,VWS V14.01,2013-03-09 21:30:00,
2013-03-09 16:33:00,58.8,23.1,30.25,NNE,13,4.0,9.0,25,0.00,,,0.00,VWS V14.01,2013-03-09 21:33:00,
2013-03-09 16:38:00,58.2,22.6,30.25,NE,47,4.0,9.0,25,0.00,,,0.00,VWS V14.01,2013-03-09 21:38:00,
2013-03-09 16:43:00,58.8,23.1,30.25,NE,47,0.0,9.0,25,0.00,,,0.00,VWS V14.01,2013-03-09 21:43:00,
2013-03-09 16:45:00,56.6,29.3,30.27,NE,36,0.0,0.0,35,0.00,,,0.00,VWS V14.01,2013-03-09 21:45:00,
2013-03-09 16:48:00,59.1,23.3,30.25,NE,34,0.0,0.0,25,0.00,,,0.00,VWS V14.01,2013-03-09 21:48:00,
2013-03-09 16:53:00,59.2,23.4,30.25,NNE,27,2.0,8.0,25,0.00,,,0.00,VWS V14.01,2013-03-09 21:53:00,
2013-03-09 16:58:00,58.8,22.1,30.25,NNE,29,5.0,8.0,24,0.00,,,0.00,VWS V14.01,2013-03-09 21:58:00,
2013-03-09 17:00:00,54.6,31.4,30.28,NE,36,0.0,0.0,41,0.00,,,0.00,VWS V14.01,2013-03-09 22:00:00,
2013-03-09 17:03:00,58.2,21.6,30.26,NNE,32,0.0,6.0,24,0.00,,,0.00,VWS V14.01,2013-03-09 22:03:00,
2013-03-09 17:08:00,58.3,25.4,30.26,NNE,32,0.0,6.0,28,0.00,,,0.00,VWS V14.01,2013-03-09 22:08:00,
2013-03-09 17:13:00,58.6,22.9,30.26,NE,38,1.0,6.0,25,0.00,,,0.00,VWS V14.01,2013-03-09 22:13:00,
2013-03-09 17:15:00,52.2,31.5,30.28,NE,36,0.0,0.0,45,0.00,,,0.00,VWS V14.01,2013-03-09 22:15:00,
2013-03-09 17:18:00,58.0,22.4,30.26,NE,36,0.0,6.0,25,0.00,,,0.00,VWS V14.01,2013-03-09 22:18:00,
2013-03-09 17:23:00,57.7,23.1,30.26,NE,36,0.0,6.0,26,0.00,,,0.00,VWS V14.01,2013-03-09 22:23:00,
2013-03-09 17:28:00,57.4,24.6,30.26,NE,36,0.0,6.0,28,0.00,,,0.00,VWS V14.01,2013-03-09 22:28:00,
2013-03-09 17:30:00,49.3,31.0,30.28,NE,36,0.0,0.0,49,0.00,,,0.00,VWS V14.01,2013-03-09 22:30:00,
2013-03-09 17:33:00,57.5,25.5,30.26,NE,36,0.0,0.0,29,0.00,,,0.00,VWS V14.01,2013-03-09 22:33:00,
2013-03-09 17:38:00,57.5,27.1,30.26,NE,36,0.0,0.0,31,0.00,,,0.00,VWS V14.01,2013-03-09 22:38:00,
2013-03-09 17:43:00,56.9,26.6,30.26,NE,36,0.0,0.0,31,0.00,,,0.00,VWS V14.01,2013-03-09 22:43:00,
2013-03-09 17:45:00,46.3,29.7,30.28,NE,36,0.0,0.0,52,0.00,,,0.00,VWS V14.01,2013-03-09 22:45:00,
2013-03-09 17:48:00,56.4,29.1,30.27,NE,36,0.0,0.0,35,0.00,,,0.00,VWS V14.01,2013-03-09 22:48:00,
2013-03-09 17:53:00,55.8,30.6,30.27,NE,36,0.0,0.0,38,0.00,,,0.00,VWS V14.01,2013-03-09 22:53:00,
2013-03-09 17:58:00,54.9,30.4,30.27,NE,36,0.0,0.0,39,0.00,,,0.00,VWS V14.01,2013-03-09 22:58:00,
2013-03-09 18:00:00,43.7,29.9,30.28,NE,36,0.0,0.0,58,0.00,,,0.00,VWS V14.01,2013-03-09 23:00:00,
2013-03-09 18:03:00,54.1,30.9,30.28,NE,36,0.0,0.0,41,0.00,,,0.00,VWS V14.01,2013-03-09 23:03:00,
2013-03-09 18:08:00,53.4,30.9,30.28,NE,36,0.0,0.0,42,0.00,,,0.00,VWS V14.01,2013-03-09 23:08:00,
2013-03-09 18:13:00,52.7,30.3,30.28,NE,36,0.0,0.0,42,0.00,,,0.00,VWS V14.01,2013-03-09 23:13:00,
2013-03-09 18:15:00,41.8,29.8,30.28,NE,36,0.0,2.0,62,0.00,,,0.00,VWS V14.01,2013-03-09 23:15:00,
2013-03-09 18:18:00,51.8,31.7,30.28,NE,36,0.0,0.0,46,0.00,,,0.00,VWS V14.01,2013-03-09 23:18:00,
2013-03-09 18:23:00,50.7,30.7,30.28,NE,36,0.0,0.0,46,0.00,,,0.00,VWS V14.01,2013-03-09 23:23:00,
2013-03-09 18:28:00,49.7,30.8,30.28,NE,36,0.0,0.0,48,0.00,,,0.00,VWS V14.01,2013-03-09 23:28:00,
2013-03-09 18:30:00,41.4,25.6,30.29,NE,38,1.0,2.0,53,0.00,,,0.00,VWS V14.01,2013-03-09 23:30:00,
2013-03-09 18:33:00,48.8,30.5,30.28,NE,36,0.0,0.0,49,0.00,,,0.00,VWS V14.01,2013-03-09 23:33:00,
2013-03-09 18:38:00,47.8,30.6,30.28,NE,36,0.0,0.0,51,0.00,,,0.00,VWS V14.01,2013-03-09 23:38:00,
2013-03-09 18:43:00,46.9,30.7,30.28,NE,36,0.0,0.0,53,0.00,,,0.00,VWS V14.01,2013-03-09 23:43:00,
2013-03-09 18:45:00,42.7,27.2,30.30,NE,44,0.0,3.0,54,0.00,,,0.00,VWS V14.01,2013-03-09 23:45:00,
2013-03-09 18:48:00,45.9,30.7,30.28,NE,36,0.0,0.0,55,0.00,,,0.00,VWS V14.01,2013-03-09 23:48:00,
2013-03-09 18:53:00,45.0,30.7,30.28,NE,36,0.0,0.0,57,0.00,,,0.00,VWS V14.01,2013-03-09 23:53:00,
2013-03-09 18:58:00,44.1,30.3,30.28,NE,36,0.0,0.0,58,0.00,,,0.00,VWS V14.01,2013-03-09 23:58:00,
2013-03-09 19:00:00,43.1,26.7,30.30,NE,44,0.0,0.0,52,0.00,,,0.00,VWS V14.01,2013-03-10 00:00:00,
2013-03-09 19:03:00,43.4,29.6,30.28,NE,36,0.0,0.0,58,0.00,,,0.00,VWS V14.01,2013-03-10 00:03:00,
2013-03-09 19:08:00,42.7,30.6,30.28,NE,36,0.0,1.0,62,0.00,,,0.00,VWS V14.01,2013-03-10 00:08:00,
2013-03-09 19:13:00,42.1,30.0,30.28,NE,36,1.0,2.0,62,0.00,,,0.00,VWS V14.01,2013-03-10 00:13:00,
2013-03-09 19:15:00,42.8,27.8,30.30,NE,44,0.0,0.0,55,0.00,,,0.00,VWS V14.01,2013-03-10 00:15:00,
2013-03-09 19:18:00,41.5,29.5,30.28,NE,36,0.0,0.0,62,0.00,,,0.00,VWS V14.01,2013-03-10 00:18:00,
2013-03-09 19:22:00,41.1,27.5,30.28,NE,36,0.0,0.0,58,0.00,,,0.00,VWS V14.01,2013-03-10 00:22:00,
2013-03-09 19:27:00,41.2,26.7,30.28,NE,38,0.0,2.0,56,0.00,,,0.00,VWS V14.01,2013-03-10 00:27:00,
2013-03-09 19:30:00,42.1,29.6,30.30,NE,44,0.0,0.0,61,0.00,,,0.00,VWS V14.01,2013-03-10 00:30:00,
2013-03-09 19:32:00,41.5,25.7,30.29,NE,42,0.0,2.0,53,0.00,,,0.00,VWS V14.01,2013-03-10 00:32:00,
2013-03-09 19:37:00,42.0,25.2,30.29,NE,44,0.0,3.0,51,0.00,,,0.00,VWS V14.01,2013-03-10 00:37:00,
2013-03-09 19:42:00,42.5,26.1,30.29,NE,44,0.0,3.0,52,0.00,,,0.00,VWS V14.01,2013-03-10 00:42:00,
2013-03-09 19:45:00,41.1,29.9,30.30,NE,44,0.0,0.0,64,0.00,,,0.00,VWS V14.01,2013-03-10 00:45:00,
2013-03-09 19:47:00,42.8,26.9,30.30,NE,44,0.0,0.0,53,0.00,,,0.00,VWS V14.01,2013-03-10 00:47:00,
2013-03-09 19:52:00,43.0,27.5,30.30,NE,44,0.0,0.0,54,0.00,,,0.00,VWS V14.01,2013-03-10 00:52:00,
2013-03-09 19:57:00,43.1,27.6,30.30,NE,44,0.0,0.0,54,0.00,,,0.00,VWS V14.01,2013-03-10 00:57:00,
2013-03-09 20:00:00,39.5,29.8,30.30,NE,44,0.0,0.0,68,0.00,,,0.00,VWS V14.01,2013-03-10 01:00:00,
2013-03-09 20:02:00,43.1,27.1,30.30,NE,44,0.0,0.0,53,0.00,,,0.00,VWS V14.01,2013-03-10 01:02:00,
2013-03-09 20:07:00,43.1,26.7,30.30,NE,44,0.0,0.0,52,0.00,,,0.00,VWS V14.01,2013-03-10 01:07:00,
2013-03-09 20:12:00,43.0,27.5,30.30,NE,44,0.0,0.0,54,0.00,,,0.00,VWS V14.01,2013-03-10 01:12:00,
2013-03-09 20:15:00,38.2,28.6,30.31,NE,44,0.0,0.0,68,0.00,,,0.00,VWS V14.01,2013-03-10 01:15:00,
2013-03-09 20:17:00,42.8,28.2,30.30,NE,44,0.0,0.0,56,0.00,,,0.00,VWS V14.01,2013-03-10 01:17:00,
2013-03-09 20:22:00,42.5,28.4,30.30,NE,44,0.0,0.0,57,0.00,,,0.00,VWS V14.01,2013-03-10 01:22:00,
2013-03-09 20:27:00,42.4,29.9,30.30,NE,44,0.0,0.0,61,0.00,,,0.00,VWS V14.01,2013-03-10 01:27:00,
2013-03-09 20:30:00,37.5,28.3,30.31,NE,44,0.0,0.0,69,0.00,,,0.00,VWS V14.01,2013-03-10 01:30:00,
2013-03-09 20:32:00,42.0,29.1,30.30,NE,44,0.0,0.0,60,0.00,,,0.00,VWS V14.01,2013-03-10 01:32:00,
2013-03-09 20:37:00,41.7,28.4,30.30,NE,44,0.0,0.0,59,0.00,,,0.00,VWS V14.01,2013-03-10 01:37:00,
2013-03-09 20:42:00,41.4,28.2,30.30,NE,44,0.0,0.0,59,0.00,,,0.00,VWS V14.01,2013-03-10 01:42:00,
2013-03-09 20:45:00,36.7,28.9,30.32,NE,44,0.0,0.0,73,0.00,,,0.00,VWS V14.01,2013-03-10 01:45:00,
2013-03-09 20:47:00,41.0,30.5,30.30,NE,44,0.0,0.0,66,0.00,,,0.00,VWS V14.01,2013-03-10 01:47:00,
2013-03-09 20:52:00,40.4,30.7,30.30,NE,44,0.0,0.0,68,0.00,,,0.00,VWS V14.01,2013-03-10 01:52:00,
2013-03-09 20:57:00,39.8,30.1,30.30,NE,44,0.0,0.0,68,0.00,,,0.00,VWS V14.01,2013-03-10 01:57:00,
2013-03-09 21:00:00,35.7,27.9,30.32,NE,44,0.0,0.0,73,0.00,,,0.00,VWS V14.01,2013-03-10 02:00:00,
2013-03-09 21:02:00,39.2,29.2,30.30,NE,44,0.0,0.0,67,0.00,,,0.00,VWS V14.01,2013-03-10 02:02:00,
2013-03-09 21:07:00,38.8,29.2,30.30,NE,44,0.0,0.0,68,0.00,,,0.00,VWS V14.01,2013-03-10 02:07:00,
2013-03-09 21:12:00,38.5,29.2,30.30,NE,44,0.0,0.0,69,0.00,,,0.00,VWS V14.01,2013-03-10 02:12:00,
2013-03-09 21:15:00,35.1,28.0,30.31,NE,44,0.0,0.0,75,0.00,,,0.00,VWS V14.01,2013-03-10 02:15:00,
2013-03-09 21:17:00,38.2,28.6,30.31,NE,44,0.0,0.0,68,0.00,,,0.00,VWS V14.01,2013-03-10 02:17:00,
2013-03-09 21:22:00,37.9,28.6,30.31,NE,44,0.0,0.0,69,0.00,,,0.00,VWS V14.01,2013-03-10 02:22:00,
2013-03-09 21:27:00,37.7,28.5,30.31,NE,44,0.0,0.0,69,0.00,,,0.00,VWS V14.01,2013-03-10 02:27:00,
2013-03-09 21:30:00,34.5,27.7,30.31,NE,44,0.0,0.0,76,0.00,,,0.00,VWS V14.01,2013-03-10 02:30:00,
2013-03-09 21:32:00,37.4,28.9,30.31,NE,44,0.0,0.0,71,0.00,,,0.00,VWS V14.01,2013-03-10 02:32:00,
2013-03-09 21:37:00,37.2,29.0,30.31,NE,44,0.0,0.0,72,0.00,,,0.00,VWS V14.01,2013-03-10 02:37:00,
2013-03-09 21:42:00,36.8,29.0,30.31,NE,44,0.0,0.0,73,0.00,,,0.00,VWS V14.01,2013-03-10 02:42:00,
2013-03-09 21:45:00,34.0,27.9,30.32,NE,44,0.0,0.0,78,0.00,,,0.00,VWS V14.01,2013-03-10 02:45:00,
2013-03-09 21:47:00,36.5,28.7,30.32,NE,44,0.0,0.0,73,0.00,,,0.00,VWS V14.01,2013-03-10 02:47:00,
2013-03-09 21:52:00,36.2,28.4,30.32,NE,44,0.0,0.0,73,0.00,,,0.00,VWS V14.01,2013-03-10 02:52:00,
2013-03-09 21:57:00,35.8,28.0,30.32,NE,44,0.0,0.0,73,0.00,,,0.00,VWS V14.01,2013-03-10 02:57:00,
2013-03-09 22:00:00,33.7,28.2,30.33,NE,44,0.0,0.0,80,0.00,,,0.00,VWS V14.01,2013-03-10 03:00:00,
2013-03-09 22:02:00,35.7,27.9,30.32,NE,44,0.0,0.0,73,0.00,,,0.00,VWS V14.01,2013-03-10 03:02:00,
2013-03-09 22:07:00,35.5,28.0,30.32,NE,44,0.0,0.0,74,0.00,,,0.00,VWS V14.01,2013-03-10 03:07:00,
2013-03-09 22:12:00,35.2,27.8,30.32,NE,44,0.0,0.0,74,0.00,,,0.00,VWS V14.01,2013-03-10 03:12:00,
2013-03-09 22:15:00,33.0,27.5,30.33,NE,44,0.0,1.0,80,0.00,,,0.00,VWS V14.01,2013-03-10 03:15:00,
2013-03-09 22:17:00,35.1,28.0,30.31,NE,44,0.0,0.0,75,0.00,,,0.00,VWS V14.01,2013-03-10 03:17:00,
2013-03-09 22:22:00,34.8,28.0,30.31,NE,44,0.0,0.0,76,0.00,,,0.00,VWS V14.01,2013-03-10 03:22:00,
2013-03-09 22:27:00,34.5,27.7,30.31,NE,44,0.0,0.0,76,0.00,,,0.00,VWS V14.01,2013-03-10 03:27:00,
2013-03-09 22:30:00,32.4,27.2,30.33,NE,44,0.0,0.0,81,0.00,,,0.00,VWS V14.01,2013-03-10 03:30:00,
2013-03-09 22:32:00,34.3,27.5,30.31,NE,44,0.0,0.0,76,0.00,,,0.00,VWS V14.01,2013-03-10 03:32:00,
2013-03-09 22:37:00,34.2,27.4,30.31,NE,44,0.0,0.0,76,0.00,,,0.00,VWS V14.01,2013-03-10 03:37:00,
2013-03-09 22:42:00,34.0,27.6,30.31,NE,44,0.0,0.0,77,0.00,,,0.00,VWS V14.01,2013-03-10 03:42:00,
2013-03-09 22:45:00,31.8,26.6,30.33,NE,44,0.0,0.0,81,0.00,,,0.00,VWS V14.01,2013-03-10 03:45:00,
2013-03-09 22:47:00,34.0,28.2,30.32,NE,44,0.0,0.0,79,0.00,,,0.00,VWS V14.01,2013-03-10 03:47:00,
2013-03-09 22:52:00,33.9,28.1,30.32,NE,44,0.0,0.0,79,0.00,,,0.00,VWS V14.01,2013-03-10 03:52:00,
2013-03-09 22:57:00,33.7,28.2,30.32,NE,44,0.0,0.0,80,0.00,,,0.00,VWS V14.01,2013-03-10 03:57:00,
2013-03-09 23:00:00,31.2,26.9,30.33,NE,44,0.0,2.0,84,0.00,,,0.00,VWS V14.01,2013-03-10 04:00:00,
2013-03-09 23:02:00,33.6,28.1,30.33,NE,44,0.0,0.0,80,0.00,,,0.00,VWS V14.01,2013-03-10 04:02:00,
2013-03-09 23:07:00,33.4,27.9,30.33,NE,44,0.0,0.0,80,0.00,,,0.00,VWS V14.01,2013-03-10 04:07:00,
2013-03-09 23:12:00,33.1,27.6,30.33,NE,44,0.0,0.0,80,0.00,,,0.00,VWS V14.01,2013-03-10 04:12:00,
2013-03-09 23:15:00,30.9,26.9,30.33,NE,44,0.0,0.0,85,0.00,,,0.00,VWS V14.01,2013-03-10 04:15:00,
2013-03-09 23:17:00,32.8,27.3,30.33,NE,44,0.0,0.0,80,0.00,,,0.00,VWS V14.01,2013-03-10 04:17:00,
2013-03-09 23:22:00,32.7,27.2,30.33,NE,44,0.0,0.0,80,0.00,,,0.00,VWS V14.01,2013-03-10 04:22:00,
2013-03-09 23:27:00,32.6,27.4,30.33,NE,44,0.0,0.0,81,0.00,,,0.00,VWS V14.01,2013-03-10 04:27:00,
2013-03-09 23:30:00,30.6,26.6,30.33,NE,44,0.0,0.0,85,0.00,,,0.00,VWS V14.01,2013-03-10 04:30:00,
2013-03-09 23:32:00,32.4,27.2,30.33,NE,44,0.0,0.0,81,0.00,,,0.00,VWS V14.01,2013-03-10 04:32:00,
2013-03-09 23:37:00,32.1,26.9,30.33,NE,44,0.0,0.0,81,0.00,,,0.00,VWS V14.01,2013-03-10 04:37:00,
2013-03-09 23:42:00,32.0,26.8,30.33,NE,44,0.0,0.0,81,0.00,,,0.00,VWS V14.01,2013-03-10 04:42:00,
2013-03-09 23:45:00,30.6,26.4,30.33,NE,44,0.0,0.0,84,0.00,,,0.00,VWS V14.01,2013-03-10 04:45:00,
2013-03-09 23:47:00,31.7,26.8,30.33,NE,44,2.0,2.0,82,0.00,,,0.00,VWS V14.01,2013-03-10 04:47:00,
2013-03-09 23:52:00,31.5,26.6,30.33,NE,44,0.0,2.0,82,0.00,,,0.00,VWS V14.01,2013-03-10 04:52:00,
2013-03-09 23:57:00,31.2,26.6,30.33,NE,44,0.0,2.0,83,0.00,,,0.00,VWS V14.01,2013-03-10 04:57:00,